EN

Hourly Weather Kzyl-Utar

Today, 23 July, Friday

Time Temperature Precipitation Wind Pressure Humidity
00:00 +13°C° 0 mm 2 mps 740 mmHg 92%
01:00 +13°C° 0 mm 2 mps 740 mmHg 89%
02:00 +13°C° 0 mm 1 mps 741 mmHg 86%
03:00 +14°C° 0 mm 1 mps 740 mmHg 84%
04:00 +14°C° 0 mm 1 mps 741 mmHg 83%
05:00 +14°C° 0 mm 0 mps 741 mmHg 81%
06:00 +14°C° 0 mm 0 mps 741 mmHg 80%
07:00 +15°C° 0.1 mm 0 mps 741 mmHg 75%
08:00 +18°C° 0.1 mm 1 mps 741 mmHg 70%
09:00 +19°C° 0 mm 1 mps 741 mmHg 66%
10:00 +20°C° 0 mm 1 mps 741 mmHg 58%
11:00 +21°C° 0 mm 2 mps 741 mmHg 50%
12:00 +23°C° 0 mm 2 mps 741 mmHg 42%
13:00 +23°C° 0 mm 2 mps 741 mmHg 42%
14:00 +23°C° 0 mm 2 mps 740 mmHg 42%
15:00 +23°C° 0 mm 2 mps 740 mmHg 42%
16:00 +21°C° 0 mm 2 mps 740 mmHg 48%
17:00 +20°C° 0 mm 2 mps 740 mmHg 54%
18:00 +19°C° 0 mm 2 mps 740 mmHg 61%
19:00 +18°C° 0 mm 2 mps 740 mmHg 66%
20:00 +17°C° 0 mm 2 mps 740 mmHg 72%
21:00 +16°C° 0 mm 2 mps 740 mmHg 78%
22:00 +15°C° 0 mm 2 mps 740 mmHg 78%
23:00 +15°C° 0 mm 2 mps 740 mmHg 78%

Tomorrow, 24 July, Saturday

Time Temperature Precipitation Wind Pressure Humidity
00:00 +15°C° 0 mm 2 mps 740 mmHg 78%
01:00 +14°C° 0 mm 3 mps 740 mmHg 78%
02:00 +14°C° 0 mm 3 mps 740 mmHg 79%
03:00 +14°C° 0 mm 3 mps 740 mmHg 80%
04:00 +14°C° 0 mm 3 mps 741 mmHg 81%
05:00 +14°C° 0 mm 3 mps 741 mmHg 82%
06:00 +14°C° 0 mm 3 mps 741 mmHg 84%
07:00 +15°C° 0.1 mm 4 mps 741 mmHg 78%
08:00 +17°C° 0.1 mm 4 mps 742 mmHg 73%
09:00 +18°C° 0.1 mm 4 mps 742 mmHg 68%
10:00 +19°C° 0.3 mm 4 mps 742 mmHg 63%
11:00 +19°C° 0.3 mm 4 mps 743 mmHg 59%
12:00 +20°C° 0.3 mm 5 mps 743 mmHg 54%
13:00 +20°C° 0 mm 5 mps 744 mmHg 53%
14:00 +19°C° 0 mm 5 mps 744 mmHg 52%
15:00 +19°C° 0 mm 5 mps 745 mmHg 51%
16:00 +19°C° 0 mm 4 mps 745 mmHg 51%
17:00 +18°C° 0 mm 4 mps 746 mmHg 50%
18:00 +18°C° 0 mm 4 mps 746 mmHg 49%
19:00 +16°C° 0 mm 3 mps 747 mmHg 53%
20:00 +14°C° 0 mm 3 mps 747 mmHg 57%
21:00 +13°C° 0 mm 2 mps 748 mmHg 61%
22:00 +12°C° 0 mm 2 mps 749 mmHg 64%
23:00 +10°C° 0 mm 2 mps 749 mmHg 67%

Day after tomorrow, 25 July, Sunday

Time Temperature Precipitation Wind Pressure Humidity
00:00 +9°C° 0 mm 2 mps 749 mmHg 70%
01:00 +9°C° 0 mm 2 mps 750 mmHg 68%
02:00 +8°C° 0 mm 2 mps 750 mmHg 65%
03:00 +8°C° 0 mm 2 mps 751 mmHg 63%
04:00 +9°C° 0 mm 2 mps 751 mmHg 61%
05:00 +10°C° 0 mm 2 mps 752 mmHg 59%
06:00 +12°C° 0 mm 2 mps 752 mmHg 57%
07:00 +14°C° 0 mm 2 mps 752 mmHg 52%
08:00 +16°C° 0 mm 2 mps 753 mmHg 46%
09:00 +17°C° 0 mm 2 mps 753 mmHg 41%
10:00 +18°C° 0 mm 2 mps 753 mmHg 39%
11:00 +19°C° 0 mm 2 mps 753 mmHg 36%
12:00 +20°C° 0 mm 2 mps 753 mmHg 34%
13:00 +20°C° 0 mm 3 mps 753 mmHg 34%
14:00 +21°C° 0 mm 3 mps 753 mmHg 34%
15:00 +21°C° 0 mm 3 mps 753 mmHg 33%
16:00 +20°C° 0 mm 3 mps 753 mmHg 39%
17:00 +20°C° 0 mm 2 mps 753 mmHg 44%
18:00 +19°C° 0 mm 2 mps 753 mmHg 50%
19:00 +18°C° 0 mm 2 mps 754 mmHg 51%
20:00 +16°C° 0 mm 1 mps 754 mmHg 53%
21:00 +15°C° 0 mm 1 mps 754 mmHg 55%
22:00 +14°C° 0 mm 1 mps 754 mmHg 57%
23:00 +14°C° 0 mm 1 mps 755 mmHg 58%

26 July, Monday

Time Temperature Precipitation Wind Pressure Humidity
00:00 +13°C° 0 mm 1 mps 755 mmHg 60%
01:00 +14°C° 0 mm 1 mps 755 mmHg 58%
02:00 +14°C° 0 mm 1 mps 755 mmHg 55%
03:00 +14°C° 0 mm 1 mps 755 mmHg 52%
04:00 +15°C° 0 mm 1 mps 755 mmHg 54%
05:00 +15°C° 0 mm 1 mps 755 mmHg 56%
06:00 +15°C° 0 mm 1 mps 756 mmHg 58%
07:00 +16°C° 0 mm 1 mps 756 mmHg 57%
08:00 +16°C° 0 mm 1 mps 756 mmHg 55%
09:00 +16°C° 0 mm 0 mps 756 mmHg 54%
10:00 +19°C° 0 mm 1 mps 755 mmHg 50%
11:00 +19°C° 0 mm 2 mps 755 mmHg 46%
12:00 +21°C° 0 mm 3 mps 755 mmHg 43%
13:00 +21°C° 0 mm 2 mps 755 mmHg 45%
14:00 +21°C° 0 mm 2 mps 754 mmHg 47%
15:00 +21°C° 0 mm 2 mps 754 mmHg 49%
16:00 +21°C° 0 mm 2 mps 754 mmHg 52%
17:00 +20°C° 0 mm 2 mps 754 mmHg 54%
18:00 +20°C° 0 mm 2 mps 754 mmHg 57%
19:00 +19°C° 0 mm 2 mps 754 mmHg 59%
20:00 +17°C° 0 mm 2 mps 754 mmHg 62%
21:00 +16°C° 0 mm 2 mps 753 mmHg 65%
22:00 +16°C° 0 mm 2 mps 753 mmHg 66%
23:00 +15°C° 0 mm 2 mps 753 mmHg 67%

27 July, Tuesday

Time Temperature Precipitation Wind Pressure Humidity
00:00 +15°C° 0 mm 2 mps 753 mmHg 68%
01:00 +15°C° 0 mm 2 mps 753 mmHg 67%
02:00 +15°C° 0 mm 2 mps 753 mmHg 66%
03:00 +15°C° 0 mm 2 mps 753 mmHg 65%
04:00 +16°C° 0 mm 2 mps 753 mmHg 65%
05:00 +16°C° 0 mm 2 mps 753 mmHg 66%
06:00 +17°C° 0 mm 3 mps 753 mmHg 66%
07:00 +18°C° 0 mm 3 mps 753 mmHg 63%
08:00 +19°C° 0 mm 3 mps 753 mmHg 60%
09:00 +20°C° 0 mm 3 mps 753 mmHg 57%
10:00 +21°C° 0 mm 3 mps 753 mmHg 53%
11:00 +23°C° 0 mm 4 mps 752 mmHg 48%
12:00 +26°C° 0 mm 4 mps 752 mmHg 44%
13:00 +25°C° 0 mm 4 mps 752 mmHg 48%
14:00 +23°C° 0 mm 4 mps 752 mmHg 51%
15:00 +23°C° 0 mm 4 mps 752 mmHg 54%
16:00 +22°C° 0 mm 3 mps 752 mmHg 57%
17:00 +22°C° 0 mm 3 mps 752 mmHg 61%
18:00 +21°C° 0 mm 3 mps 752 mmHg 64%
19:00 +20°C° 0 mm 2 mps 752 mmHg 69%
20:00 +19°C° 0 mm 1 mps 752 mmHg 75%
21:00 +16°C° 0 mm 1 mps 752 mmHg 80%
22:00 +16°C° 0 mm 1 mps 752 mmHg 82%
23:00 +15°C° 0 mm 1 mps 752 mmHg 84%

28 July, Wednesday

Time Temperature Precipitation Wind Pressure Humidity
00:00 +14°C° 0 mm 1 mps 752 mmHg 86%
01:00 +14°C° 0 mm 1 mps 752 mmHg 87%
02:00 +14°C° 0 mm 1 mps 752 mmHg 88%
03:00 +13°C° 0 mm 1 mps 752 mmHg 89%
04:00 +14°C° 0 mm 1 mps 752 mmHg 85%
05:00 +15°C° 0 mm 1 mps 753 mmHg 81%
06:00 +18°C° 0 mm 1 mps 753 mmHg 77%
07:00 +19°C° 0 mm 1 mps 753 mmHg 70%
08:00 +21°C° 0 mm 1 mps 752 mmHg 64%
09:00 +23°C° 0 mm 2 mps 752 mmHg 57%
10:00 +24°C° 0 mm 2 mps 752 mmHg 51%
11:00 +25°C° 0 mm 2 mps 752 mmHg 45%
12:00 +26°C° 0 mm 3 mps 751 mmHg 39%
13:00 +26°C° 0 mm 3 mps 751 mmHg 37%
14:00 +27°C° 0 mm 3 mps 751 mmHg 36%
15:00 +27°C° 0 mm 3 mps 751 mmHg 34%
16:00 +26°C° 0 mm 3 mps 751 mmHg 41%
17:00 +26°C° 0 mm 2 mps 750 mmHg 47%
18:00 +25°C° 0 mm 1 mps 750 mmHg 54%
19:00 +23°C° 0 mm 2 mps 750 mmHg 56%
20:00 +21°C° 0 mm 2 mps 750 mmHg 58%
21:00 +19°C° 0 mm 3 mps 750 mmHg 61%
22:00 +18°C° 0 mm 3 mps 750 mmHg 63%
23:00 +18°C° 0 mm 2 mps 749 mmHg 65%
Show more